sat.trackr.live / text

‹ back to catalog

STARLINK-34417

NORAD 64617 · 2025-137Z

PAYLOAD ACTIVE UNKNOWN

§ Identity

Operator
Country
US
Launch date
2025-06-25
Launch site
AFETR
Launch vehicle
Mass (kg)
RCS (m²)

Purposes: comms

External: N2YO · Heavens-Above · Gunter

§ Orbital elements

Epoch: 2026-05-24T18:37:03.616320Z

Period
93.85 min
Inclination
53.1624°
Eccentricity
0.0000427
Mean motion
15.34396233 rev/d
Perigee alt
462.4 km
Apogee alt
463.0 km
Semi-major
6,840.9 km
B*
8.4379e-4
RAAN
328.8427°
Arg perigee
81.8335°
Mean anomaly
278.2716°
Rev number
5,266

§ Raw data

STARLINK-344171 64617U 25137Z   26144.77573630  .00028237  00000+0  84379-3 0  99922 64617  53.1624 328.8427 0000427  81.8335 278.2716 15.34396233 52663

JSON: /api/v1/satellites/64617 · /tle

For live sub-satellite position, see the globe view (requires WebGL).

§ Visibility from observer

Set your observer location to see the next 7 days of passes ≥ 10°. The values pass through the URL so the page stays shareable.

No JS? Fill the form by hand. The geolocation button needs JavaScript.